ECMWFFLT1_500_spd_021.txt.gz
Wind_Speed
18 19 18 17 15 13 13 13 13 12 11 11 11 12 12 13 13 12 12 12 12 11 10 9 9 10 10 10 10 10 11 11 11 10 10 10 10 9 8 8 8 8 9 10 10 9 9 10 10 10 9 9 9 9 9 11 12 12 12 13 13 13 13
19 20 18 16 14 13 13 13 13 13 11 10 10 10 10 12 13 13 12 12 12 12 11 11 10 10 11 11 11 11 11 12 12 13 12 11 11 10 9 9 9 9 10 11 11 10 11 11 10 10 10 9 10 10 9 9 10 11 12 12 12 12 12
18 17 16 14 13 12 12 12 13 13 12 11 10 9 8 9 10 12 12 12 12 13 13 13 13 12 12 11 11 11 11 11 12 13 13 13 13 11 10 10 10 10 11 11 11 11 12 11 10 10 10 9 9 9 9 8 9 11 11 11 12 11 11
15 14 13 12 12 12 11 11 12 12 13 12 11 10 8 7 7 9 10 11 12 12 13 13 14 14 14 12 12 12 11 11 12 13 13 13 13 12 12 12 12 12 12 11 10 10 12 12 10 10 10 9 8 8 8 8 9 10 11 11 11 11 11
11 11 11 12 12 11 10 10 11 12 12 12 12 12 11 9 8 7 8 10 10 11 11 12 13 14 14 13 13 12 12 12 12 12 13 13 14 13 13 12 12 12 12 11 9 10 11 10 10 10 10 9 7 7 7 8 9 10 10 10 10 10 10
10 11 12 12 13 12 11 11 12 13 13 13 12 13 13 12 12 11 11 11 11 11 11 11 12 12 13 13 12 12 12 13 12 12 12 12 13 13 13 12 11 11 11 10 9 10 9 8 9 11 11 8 6 6 7 7 8 10 10 10 10 10 10
10 11 12 13 13 13 12 12 13 14 15 14 13 13 13 13 14 15 15 15 15 14 13 12 12 12 11 11 11 11 11 11 11 11 10 11 11 12 12 11 11 11 10 9 10 10 8 7 9 11 10 8 7 7 7 6 7 9 9 10 10 10 10
7 8 8 9 10 10 10 11 11 12 13 14 14 13 12 13 14 16 17 17 17 17 16 15 13 12 12 11 11 10 10 10 10 10 10 10 10 10 11 11 11 11 11 11 11 11 10 9 9 9 8 6 7 7 6 6 7 7 8 9 9 9 9
7 8 7 7 8 8 8 9 9 8 8 10 11 11 11 11 12 13 14 15 16 17 17 16 15 14 13 12 12 11 11 11 10 10 10 10 10 10 10 11 11 11 11 11 12 12 12 11 9 7 6 6 6 7 7 7 7 7 7 8 9 9 10
9 11 11 11 11 10 10 9 9 8 7 6 7 7 8 8 8 9 10 11 13 15 16 17 16 16 15 14 13 13 13 12 12 12 11 11 11 11 11 11 11 11 11 11 11 12 12 11 9 9 8 7 7 8 8 8 8 8 8 9 10 10 11
10 12 15 16 16 15 13 12 11 10 8 7 6 5 6 6 7 8 8 9 9 11 14 15 16 16 15 15 15 14 13 13 13 12 12 12 12 12 12 12 12 12 12 11 12 13 12 12 11 11 11 10 9 10 10 9 10 10 10 11 11 12 12
12 13 15 17 17 16 14 14 13 11 9 8 7 7 7 7 8 8 9 9 9 10 11 12 14 14 15 15 15 14 14 13 12 12 12 12 12 12 12 12 13 13 12 13 13 13 13 13 14 13 13 12 12 13 12 12 11 11 12 13 13 13 13
14 14 14 14 13 13 14 14 13 11 10 9 9 8 8 8 8 9 9 10 10 11 11 12 13 13 14 15 15 15 14 13 13 12 12 12 12 12 12 13 13 13 13 14 14 14 15 15 15 15 15 14 14 14 15 14 13 13 14 14 14 13 13
13 13 13 13 13 14 14 14 13 12 11 11 10 10 9 8 9 9 10 10 10 11 12 12 13 13 13 13 13 14 13 13 13 13 12 12 12 12 13 13 14 14 15 15 16 16 17 17 17 17 17 17 15 15 15 15 14 14 14 14 13 13 14
11 12 13 14 15 15 15 14 14 13 13 12 12 10 9 9 9 10 10 11 11 11 11 12 12 12 12 12 12 12 12 12 12 13 13 13 12 13 13 14 14 15 16 17 18 18 18 17 17 18 19 18 16 15 14 14 14 14 14 12 12 13 13
12 13 14 15 16 16 16 16 16 16 15 14 12 11 10 9 10 10 10 10 10 11 12 12 12 12 11 11 11 11 12 12 12 13 13 13 14 14 15 15 16 17 17 18 18 18 17 17 17 18 18 18 16 14 13 14 14 15 13 12 13 14 13
14 15 16 17 17 18 18 18 18 17 16 15 13 12 11 10 11 10 10 10 10 11 12 12 13 13 12 12 12 12 12 12 12 13 13 14 15 16 17 17 18 18 18 18 18 17 17 16 16 17 18 18 17 15 14 15 16 16 15 13 13 15 15
16 17 18 18 19 19 19 18 17 16 15 15 14 13 12 12 12 12 12 12 12 13 13 13 14 14 14 15 15 14 14 14 14 14 14 15 15 16 17 18 19 19 19 19 19 19 19 17 17 18 18 19 18 18 18 17 16 17 17 17 16 17 17
18 18 19 19 19 19 18 17 16 16 16 15 14 13 13 13 13 13 14 14 14 15 14 14 15 15 15 16 16 16 16 16 16 16 17 18 18 18 18 18 19 19 19 19 20 21 21 20 20 20 20 20 20 22 23 22 20 19 19 19 20 20 21
20 19 19 19 19 19 18 17 16 16 16 15 14 14 14 14 15 15 16 16 16 16 15 15 15 15 16 16 17 17 18 18 19 19 19 20 21 21 20 19 19 19 19 20 21 22 23 22 22 22 22 21 21 23 26 26 25 24 23 23 23 23 23
21 20 19 19 19 19 18 17 15 15 16 16 15 15 15 15 16 17 17 17 17 17 17 16 17 17 18 18 19 20 20 21 22 22 22 21 22 22 21 20 20 20 21 21 22 23 24 24 25 24 24 23 23 24 27 29 28 28 27 27 26 26 25
20 20 19 19 18 17 18 17 16 15 16 17 17 17 17 17 18 19 19 19 19 19 18 18 19 20 21 22 22 23 23 24 24 24 24 23 22 21 21 21 22 22 23 24 24 24 25 26 27 27 27 27 26 26 27 29 30 30 30 30 29 29 29
19 18 19 19 18 17 18 19 18 18 18 19 19 19 19 20 20 21 21 21 21 20 20 20 20 21 23 24 25 25 25 26 26 27 26 26 24 23 22 23 23 24 25 25 26 27 28 28 29 30 30 30 30 29 28 30 32 32 31 30 29 30 30
19 19 19 20 19 19 20 20 21 21 21 20 20 20 21 21 21 22 22 22 22 21 21 21 21 22 23 25 27 28 28 29 29 29 29 28 28 27 27 26 26 26 26 26 27 28 29 30 30 31 32 32 32 32 33 33 33 31 29 29 29 30 31
20 20 20 21 21 21 21 21 21 21 21 21 21 21 22 22 22 22 23 23 22 22 22 22 23 24 25 26 28 29 30 31 32 33 32 31 31 31 31 31 30 30 29 29 29 29 30 30 31 32 33 34 34 35 36 35 34 31 30 30 30 31 31
21 22 23 24 24 24 24 23 22 22 22 22 22 23 23 23 24 25 25 25 25 24 24 25 26 27 27 29 30 30 30 31 32 33 33 33 33 34 34 33 33 33 33 33 34 34 33 32 33 34 35 36 36 37 37 36 35 34 33 33 32 31 31
25 26 27 27 27 27 27 26 25 25 25 25 25 26 26 27 27 27 28 29 29 28 28 28 29 29 29 31 32 33 33 32 31 31 32 33 34 33 33 32 32 33 34 35 36 37 37 36 36 36 36 37 39 38 37 37 37 36 36 35 33 33 33
30 31 31 30 30 30 30 30 29 29 29 30 30 31 31 31 32 32 33 34 34 33 32 31 31 32 33 34 34 36 37 35 34 34 33 33 33 33 32 32 32 32 33 35 37 38 38 40 40 38 37 38 40 40 40 41 39 37 36 36 35 35 36
34 34 34 34 34 34 34 34 34 34 34 35 35 35 35 35 36 37 38 39 39 37 35 33 34 36 37 37 38 38 39 39 39 38 37 36 36 36 36 36 36 36 37 39 40 40 40 41 42 40 38 38 39 40 40 40 37 34 35 37 37 37 38
38 38 37 37 38 38 38 38 38 38 38 39 39 39 39 39 39 40 41 42 40 39 38 37 37 40 41 42 42 42 41 41 42 42 42 40 40 40 40 40 41 41 41 43 43 41 42 43 42 41 41 39 38 38 38 37 36 35 36 38 38 39 39
42 42 42 42 42 43 43 42 42 42 42 43 43 43 42 41 41 41 41 41 41 40 40 40 41 44 46 46 46 45 45 44 44 45 45 44 43 43 42 42 43 43 43 44 42 41 43 45 43 42 42 41 41 41 41 41 40 39 38 39 39 40 41
47 47 47 47 47 46 46 46 46 47 47 47 46 44 43 42 42 41 41 41 42 43 44 44 47 49 51 50 49 48 48 48 47 48 48 47 46 44 43 43 43 42 41 41 39 39 43 45 45 43 43 43 42 43 43 43 42 41 40 40 40 42 42
51 51 52 52 51 51 50 50 50 51 51 51 50 48 46 45 45 44 44 44 45 46 48 50 53 55 54 52 51 50 49 50 50 50 50 49 48 47 46 46 44 42 41 39 38 40 42 41 40 40 40 40 41 41 41 42 42 41 41 41 42 43 44
52 53 54 55 55 54 53 53 53 53 53 54 54 52 51 51 50 51 51 51 50 51 53 56 59 59 58 56 55 53 53 52 53 53 53 53 52 51 48 46 45 46 45 42 42 45 44 40 38 38 38 38 40 41 41 41 41 40 40 42 44 45 46
50 51 52 52 52 52 51 52 52 52 52 54 55 56 56 56 56 56 56 56 56 57 59 62 63 63 61 60 59 58 57 56 56 56 56 56 56 54 51 49 50 51 49 44 42 44 45 44 43 42 41 40 41 41 41 41 41 41 42 43 45 47 48
48 48 49 50 51 51 53 54 55 56 57 58 59 59 60 60 60 60 60 61 62 63 65 66 66 65 63 62 61 61 61 60 59 59 57 56 56 54 53 51 51 51 49 45 43 44 46 48 49 48 46 45 43 42 41 41 41 41 43 45 47 48 49
54 55 56 57 58 59 60 61 62 63 63 63 63 63 64 64 64 64 65 66 67 67 67 67 67 66 64 63 62 61 61 61 60 59 58 56 55 54 53 52 50 49 48 46 43 43 46 49 52 53 52 50 48 46 44 42 41 41 44 46 48 49 49

ECMWFFLT1_500_spd_024.txt.gz
Wind_Speed
15 14 13 12 12 12 12 12 12 11 11 10 10 11 11 10 10 10 10 10 10 10 9 9 10 11 12 13 13 13 13 12 12 12 12 13 13 13 13 13 13 12 11 11 11 10 10 9 10 10 11 11 12 13 14 14 15 14 13 13 13 13 13
14 14 12 12 12 12 11 11 11 11 10 9 9 9 9 9 9 9 9 10 10 10 9 10 10 11 11 12 13 13 13 13 13 13 14 14 14 14 14 14 13 12 12 12 12 11 11 11 11 11 11 11 12 13 14 15 14 13 12 13 13 13 12
14 13 12 12 13 12 11 11 10 11 10 9 8 9 9 9 8 8 8 9 9 10 10 11 12 12 13 13 13 13 14 14 14 14 14 14 14 15 15 14 13 13 13 13 13 12 12 12 12 11 10 11 13 13 14 14 13 12 12 13 13 12 11
13 13 13 13 12 11 11 11 11 11 11 10 9 9 10 10 8 8 7 6 7 8 9 11 12 13 14 14 15 15 15 14 13 14 14 13 14 14 14 14 13 13 13 14 13 12 12 12 11 10 10 11 12 13 13 13 13 12 12 12 12 12 11
13 12 12 12 11 11 11 12 12 11 10 11 11 11 12 11 10 9 8 6 5 6 7 9 10 11 12 13 14 15 15 14 13 13 13 13 13 14 13 13 13 13 13 13 12 11 11 11 11 11 11 11 12 13 12 12 12 11 12 12 12 11 10
10 10 10 10 11 11 12 12 12 11 10 11 11 12 13 13 13 13 11 9 8 7 8 8 8 9 10 12 13 14 14 15 14 14 14 14 14 14 13 13 13 13 13 13 12 11 11 12 12 11 10 11 12 12 12 12 12 11 11 11 11 10 9
9 9 10 11 11 12 13 13 12 11 11 11 12 13 14 13 14 14 14 13 12 12 12 12 11 11 11 12 12 13 13 14 15 15 14 14 14 14 13 13 12 13 12 12 11 11 12 12 10 9 10 11 12 11 12 13 12 11 11 10 10 10 9
8 9 10 11 11 12 12 11 11 11 10 10 10 12 13 13 13 14 14 14 15 15 15 15 15 15 14 13 13 12 13 13 14 14 14 14 14 14 13 12 12 12 11 10 10 11 12 11 9 9 11 11 11 12 12 13 12 12 11 10 9 9 9
7 8 9 9 10 10 9 9 10 9 8 8 7 9 12 12 12 12 12 14 15 16 16 16 17 17 16 16 15 14 13 14 14 14 14 14 14 13 12 11 11 10 10 10 11 13 13 11 10 10 11 11 11 11 11 11 11 12 12 11 10 10 9
7 8 10 10 9 9 9 9 9 9 8 6 6 7 8 9 10 9 10 11 12 12 14 15 16 17 18 17 17 16 15 14 14 13 13 13 13 12 12 11 11 11 11 11 12 13 13 12 12 11 11 12 11 11 10 11 11 12 12 13 12 11 11
10 10 11 12 12 12 12 12 11 11 10 8 6 6 7 8 8 8 8 9 9 9 10 12 14 16 17 17 17 17 16 15 14 14 13 13 13 13 12 11 11 11 12 12 12 13 12 11 10 10 11 12 12 11 11 11 11 12 13 14 13 13 13
12 13 13 14 16 17 17 17 15 14 13 12 9 8 8 8 9 9 8 8 7 7 7 9 11 13 15 16 17 17 16 15 15 14 14 13 13 13 12 11 11 11 11 11 12 11 10 9 10 11 12 12 12 12 12 12 12 13 14 14 14 15 15
14 15 15 16 17 18 19 19 17 15 14 13 12 11 10 10 10 9 8 8 7 6 7 8 9 11 13 15 15 15 15 15 15 14 14 13 12 12 11 11 11 11 11 11 10 9 8 8 10 11 11 12 12 12 12 13 14 15 15 14 15 15 14
16 16 17 18 18 18 18 17 15 14 14 14 13 13 12 11 11 10 10 9 8 7 7 8 9 10 11 12 13 14 14 14 14 14 14 13 12 12 12 12 12 11 11 10 9 9 9 9 10 11 12 12 12 12 13 13 15 15 14 14 15 15 13
16 17 18 18 18 18 17 15 14 14 14 14 14 14 13 13 12 11 10 9 8 8 8 8 8 9 9 10 11 12 12 12 12 12 12 12 12 12 12 13 12 12 12 12 11 11 11 11 12 13 13 14 14 14 14 14 15 14 13 13 14 14 13
17 18 19 19 19 18 17 15 15 15 15 15 15 14 14 13 12 12 10 9 9 8 9 9 8 8 8 9 10 10 10 9 9 10 10 10 11 11 12 12 12 13 13 13 13 14 14 13 14 14 14 14 14 14 15 16 15 13 12 13 13 14 14
19 19 20 21 20 19 17 16 16 16 16 16 15 14 13 13 12 12 11 10 10 10 10 10 10 9 9 9 9 9 9 9 9 9 9 10 10 11 11 11 12 12 13 14 14 15 15 15 15 16 15 13 13 14 15 16 15 14 13 14 15 15 15
20 21 23 22 21 20 18 17 17 18 18 17 17 16 14 14 13 13 12 11 11 11 11 12 11 11 11 10 10 10 10 10 10 10 10 10 10 11 11 12 12 12 13 14 14 15 15 15 15 16 16 15 14 14 15 16 17 16 15 16 17 17 17
23 24 24 23 22 21 20 19 20 20 20 19 18 17 16 16 15 15 14 14 13 13 13 13 13 13 13 12 12 12 12 11 11 11 12 12 13 14 14 15 15 14 13 14 14 14 14 14 15 16 17 17 17 16 17 17 18 18 18 18 19 20 20
25 26 26 25 24 22 21 21 21 21 21 20 19 18 18 18 18 17 17 16 15 15 14 14 14 15 15 14 14 14 13 13 14 14 15 16 16 17 17 17 17 16 16 15 16 16 15 15 15 16 17 18 18 19 20 20 20 20 21 21 22 23 24
26 28 28 26 24 23 22 22 22 21 21 20 20 20 19 19 20 19 19 19 17 17 16 16 16 16 16 16 16 16 15 15 16 17 17 18 18 19 19 19 18 18 18 18 17 18 18 18 17 18 19 20 20 21 22 23 23 22 23 24 25 25 26
25 27 27 25 23 22 22 21 21 21 22 22 21 21 21 21 21 20 20 20 19 19 18 18 18 18 17 18 18 17 17 17 18 18 19 20 20 21 22 22 21 21 20 20 20 21 22 22 21 21 21 22 23 23 24 26 26 26 25 25 26 27 28
21 23 24 23 22 22 21 21 21 22 23 23 22 22 22 22 22 22 22 22 21 21 21 20 20 20 20 20 20 19 19 18 19 19 19 20 21 23 24 25 25 24 24 24 25 26 26 26 26 26 25 25 25 25 25 26 28 29 29 28 28 28 29
16 18 20 21 21 22 22 23 23 23 23 23 23 23 24 25 25 25 25 24 23 23 23 22 22 22 22 22 21 21 20 19 19 20 20 21 22 22 24 26 26 26 27 28 28 29 29 29 29 28 28 28 28 28 28 28 29 30 32 31 31 31 31
16 16 18 20 21 22 24 25 25 24 24 24 25 26 27 28 28 27 27 26 25 24 24 24 24 24 24 24 23 23 22 22 21 21 22 22 23 24 26 27 27 27 27 28 30 30 30 30 30 30 30 31 31 31 32 32 32 32 33 34 34 34 34
22 22 22 22 23 25 27 27 27 27 26 27 28 29 29 30 29 28 27 27 26 25 26 26 27 27 27 26 26 25 25 24 24 24 24 24 25 26 26 27 27 28 28 29 30 30 31 31 31 31 32 32 32 33 34 35 36 36 36 37 37 37 36
28 28 27 26 26 28 29 30 31 31 30 30 30 30 30 30 30 29 28 28 27 27 28 29 30 30 30 30 29 29 29 28 27 27 27 27 28 28 28 29 29 30 31 31 31 31 31 31 31 31 32 33 34 36 37 37 38 39 38 38 39 40 39
32 33 33 30 29 30 30 31 32 31 31 31 31 31 31 31 31 31 30 31 31 31 32 32 32 33 33 32 33 33 33 33 32 30 29 29 30 31 32 33 33 34 34 34 34 34 34 34 35 35 35 37 39 40 41 40 40 40 40 39 39 40 40
33 34 35 33 32 32 31 31 31 32 32 33 33 33 33 33 34 34 35 35 36 36 36 36 36 37 37 37 37 38 38 38 37 34 32 31 32 33 35 36 37 39 39 37 37 37 36 37 40 40 40 41 43 43 43 43 42 41 40 40 40 39 39
34 35 36 36 35 34 33 33 33 34 35 36 36 37 37 38 38 38 39 40 41 41 41 41 40 41 42 43 43 43 42 42 41 40 36 34 34 35 37 38 39 41 43 42 41 40 39 40 42 41 41 42 43 44 43 43 43 43 42 41 41 40 39
35 35 36 37 37 37 37 37 37 37 38 39 39 40 40 41 42 42 43 44 45 46 45 45 45 46 47 48 48 47 45 44 44 44 43 40 39 40 41 41 41 42 45 45 44 43 42 42 42 41 41 42 42 42 42 43 44 45 44 43 43 42 41
38 37 38 40 41 41 42 42 41 41 41 41 42 43 43 44 44 46 47 47 48 48 49 49 49 50 51 51 50 49 47 46 46 47 47 47 46 46 46 46 45 45 46 47 47 46 45 45 44 44 44 45 44 42 42 44 46 47 47 46 45 43 42
42 42 43 44 45 46 45 45 45 44 44 44 45 46 47 47 48 49 50 51 51 52 52 52 51 51 51 51 51 49 48 47 48 49 51 51 51 51 51 51 50 48 48 49 49 49 48 48 47 47 48 47 45 45 46 47 49 50 49 47 43 40 39
46 46 47 48 48 49 48 47 47 47 48 48 48 49 50 50 51 52 52 52 53 54 54 53 52 51 51 52 52 51 50 49 50 52 54 55 55 55 56 56 55 53 52 51 51 51 51 51 51 50 49 48 47 48 50 51 53 52 51 48 43 39 38
47 48 49 50 50 50 50 50 49 50 51 52 52 52 52 52 52 52 52 52 53 53 53 53 53 52 53 54 54 54 54 54 56 58 59 59 59 60 60 60 58 57 55 54 53 52 53 53 53 51 50 49 50 52 52 52 52 51 51 50 46 41 38
45 46 47 47 48 49 49 50 50 51 52 52 52 52 52 52 52 53 53 53 54 54 55 55 55 55 56 57 58 59 59 60 61 63 64 64 64 64 64 63 61 59 58 57 56 55 55 54 53 51 49 49 50 50 50 50 51 51 50 48 46 43 39
47 47 48 48 50 51 52 52 53 54 54 54 54 54 54 54 55 55 56 57 58 59 60 61 61 62 63 63 63 63 64 64 65 66 67 67 67 67 67 65 64 63 61 59 58 57 56 54 53 51 49 48 48 48 49 50 52 53 50 47 47 47 45

ECMWFFLT1_500_spd_027.txt.gz
Wind_Speed
16 17 16 13 11 9 10 11 11 11 10 9 10 11 11 11 12 12 12 13 13 13 14 14 13 13 13 13 14 14 14 14 14 15 15 16 16 16 16 16 16 16 16 17 16 16 16 16 16 15 15 17 17 17 16 15 15 15 17 18 18 18 18
17 18 18 16 14 11 10 10 10 9 8 8 9 10 11 10 10 11 12 13 14 14 13 13 12 12 12 12 12 11 11 12 13 14 15 16 16 16 16 16 16 17 17 17 17 17 17 17 17 16 17 18 17 16 16 15 15 16 17 17 17 16 16
17 18 18 17 15 12 11 9 9 8 8 8 9 10 11 10 9 10 11 12 13 14 13 13 12 12 11 11 11 10 11 12 13 14 15 15 16 16 17 16 16 17 17 18 18 18 18 18 17 17 17 18 17 17 17 16 15 17 18 17 16 16 16
17 16 15 14 13 12 10 9 9 8 8 8 9 10 10 10 9 9 9 11 12 13 14 13 13 12 12 12 12 12 12 13 13 13 14 14 15 16 16 15 15 16 17 17 18 19 18 18 17 16 17 18 18 18 18 16 16 17 17 16 16 16 16
14 12 11 11 11 10 9 9 8 7 7 7 8 9 10 10 10 10 9 10 11 13 13 12 12 12 12 12 12 12 12 13 13 13 14 14 14 15 15 15 15 16 17 18 18 18 18 17 16 16 17 18 18 18 18 16 17 18 18 17 16 16 16
12 11 10 9 9 8 9 9 7 7 8 8 9 9 9 10 11 11 11 11 11 11 10 10 9 9 9 9 10 10 10 11 12 13 14 14 14 15 15 15 15 16 16 17 17 17 16 16 16 17 19 19 18 18 17 17 17 18 18 17 17 16 16
9 9 9 8 8 9 10 9 8 9 10 10 10 11 11 11 12 12 13 13 13 12 11 10 10 9 8 8 9 9 9 10 11 12 13 14 14 15 15 16 16 16 16 16 16 16 15 16 16 18 18 18 17 17 17 17 18 18 18 18 17 16 16
6 8 9 9 10 11 12 10 9 10 11 11 11 12 12 12 13 12 13 14 14 14 14 13 13 13 12 11 11 11 11 11 12 12 13 14 15 15 15 16 16 16 16 16 16 15 15 16 16 17 18 17 17 17 18 18 18 18 18 17 17 16 16
9 9 10 11 11 12 13 11 10 10 10 11 11 11 10 11 12 13 14 13 13 14 15 15 15 15 14 14 14 14 13 13 13 14 14 14 15 15 15 16 16 17 16 16 16 16 16 16 16 17 18 18 18 18 18 18 18 18 17 17 17 16 16
11 10 11 11 12 13 12 11 11 11 10 10 10 9 9 9 11 13 14 13 12 12 13 14 15 15 15 15 15 15 15 15 15 15 15 15 15 15 15 16 17 17 16 16 16 16 17 17 17 18 19 19 19 19 19 19 18 18 16 16 16 16 17
13 12 12 13 13 13 13 13 13 12 11 10 9 8 8 8 10 12 12 12 11 11 12 12 13 13 14 14 14 14 15 16 16 16 16 16 16 15 15 15 16 16 16 16 16 16 17 18 19 19 19 20 20 19 19 19 19 18 17 16 16 16 17
16 15 15 15 15 15 16 16 16 14 12 12 11 10 9 9 10 11 11 10 10 11 10 10 9 10 10 11 11 12 14 15 16 17 17 17 16 16 16 16 16 15 15 16 16 17 18 19 20 20 20 20 19 19 18 19 19 19 18 18 17 17 17
19 19 18 18 17 17 18 19 18 16 15 14 14 13 12 11 11 11 11 11 11 11 10 9 9 9 9 9 10 11 12 13 14 15 16 16 16 16 16 17 17 16 16 16 17 18 18 19 19 19 19 19 19 18 18 19 19 19 19 19 19 18 19
21 21 21 19 18 18 20 21 20 19 18 17 16 14 13 13 13 13 12 12 12 11 11 11 10 10 9 9 10 10 11 12 13 14 14 15 15 16 16 16 16 16 16 16 17 18 18 18 18 18 18 18 18 18 19 19 19 19 19 19 19 19 20
22 22 21 20 19 21 21 21 21 20 19 17 16 15 15 14 14 14 13 13 12 12 11 11 10 10 10 10 10 10 10 11 11 12 13 13 14 14 14 15 15 14 15 16 16 17 17 17 17 17 18 18 18 18 19 19 19 19 18 19 19 20 20
22 23 22 21 22 23 22 21 20 20 18 18 17 16 15 15 14 14 13 13 13 13 12 11 10 10 10 10 10 10 10 10 10 11 11 12 12 12 13 13 13 13 14 14 15 15 16 16 17 17 18 18 18 18 18 19 18 18 18 19 20 20 19
24 24 22 22 24 24 22 20 20 19 18 18 18 16 15 15 14 14 13 13 13 13 12 11 10 10 10 10 10 10 10 10 11 11 11 12 12 13 13 12 12 12 13 13 14 14 15 16 17 18 18 18 18 18 18 18 18 17 17 18 18 19 18
25 24 22 23 25 24 21 19 19 19 19 18 17 16 16 15 15 14 13 13 13 13 12 11 11 11 11 10 10 10 10 10 11 11 12 12 12 12 12 12 12 12 12 12 12 13 14 15 15 16 16 16 16 17 17 17 17 17 17 17 18 18 19
25 24 24 25 26 24 21 20 20 20 19 19 17 17 16 16 16 15 15 14 14 14 13 12 12 11 11 11 10 10 11 11 11 12 12 12 12 13 13 13 13 12 12 12 12 12 12 13 13 14 14 14 14 15 16 16 17 17 17 17 18 19 19
24 24 25 27 27 26 24 22 21 21 20 19 18 17 17 17 17 17 16 15 15 15 14 14 13 13 12 12 12 12 13 13 13 14 14 14 14 15 15 15 14 14 14 14 15 15 15 14 14 15 15 14 14 15 15 17 17 18 18 19 19 20 21
26 25 27 28 27 26 26 25 24 23 21 20 19 18 18 18 19 19 18 17 17 16 16 15 15 14 14 15 15 15 16 16 17 17 17 17 17 17 16 16 15 15 15 16 16 17 17 17 17 17 18 18 18 18 18 19 19 20 20 21 22 23 24
24 25 28 30 28 26 26 27 26 25 24 23 21 20 20 21 21 21 21 20 18 18 18 17 17 16 16 17 17 18 19 19 19 19 18 18 18 17 17 16 16 16 16 16 17 18 18 18 18 19 20 21 22 22 21 21 21 21 21 22 23 24 25
20 23 27 31 29 27 27 28 28 27 26 24 22 22 22 22 22 23 22 22 20 19 19 19 19 19 19 19 20 20 21 21 21 21 20 20 20 19 18 18 17 17 17 18 18 19 19 19 19 20 21 22 23 24 24 24 23 23 23 24 25 25 26
20 23 26 29 29 28 28 28 28 28 27 24 22 22 23 23 24 24 23 23 23 22 21 21 21 21 21 22 22 22 23 23 23 22 22 23 22 22 21 20 20 20 20 20 20 20 21 21 22 23 23 23 23 24 24 24 24 24 25 25 26 27 28
20 23 25 26 26 26 26 27 27 26 25 24 23 23 24 25 25 25 25 25 25 24 24 23 23 24 24 24 24 24 24 24 24 24 24 25 25 25 24 23 23 23 23 23 23 23 24 24 25 26 26 26 24 24 24 24 24 24 26 27 29 29 30
22 22 23 24 25 24 24 26 26 25 25 24 24 25 28 28 28 28 27 27 27 26 26 26 27 27 27 27 26 26 26 26 26 26 26 26 27 28 27 27 26 26 25 25 25 25 26 27 28 29 30 30 28 27 27 27 27 28 30 32 33 34 35
25 24 24 26 27 25 24 24 25 25 25 25 26 29 32 32 30 29 29 29 29 30 30 30 29 29 29 29 29 28 28 29 29 30 30 30 31 31 31 31 30 29 27 26 26 27 28 29 30 31 32 33 33 32 31 30 31 33 35 37 37 37 39
28 27 28 30 30 29 28 27 27 28 27 27 28 31 34 33 32 31 31 32 32 33 32 32 32 32 32 31 31 31 32 32 33 33 34 35 35 35 35 35 34 33 31 29 28 28 30 30 32 34 34 33 34 35 34 35 36 38 39 39 38 37 39
30 30 30 32 33 34 34 33 33 32 30 30 31 33 34 34 34 34 34 34 35 35 35 34 34 34 34 34 35 35 36 36 36 37 38 39 40 40 39 39 39 38 37 35 32 32 32 32 33 34 35 35 36 37 38 39 40 40 40 40 40 40 42
29 29 29 31 33 34 34 35 35 35 33 33 33 35 35 35 36 36 36 37 37 37 38 38 38 38 38 39 39 40 40 40 40 41 42 43 44 45 45 45 44 43 43 42 40 38 38 37 35 36 37 38 40 40 41 42 41 41 42 43 44 45 46
29 29 29 30 33 34 35 36 36 36 35 35 36 37 37 37 37 38 38 39 39 40 41 41 42 42 43 44 44 44 45 44 44 45 45 46 47 48 49 49 49 48 47 46 43 42 42 41 40 41 42 42 42 43 43 44 44 44 46 47 47 49 49
32 31 31 32 33 35 36 38 38 37 37 37 38 39 39 39 39 39 40 41 42 43 44 45 46 47 48 48 49 49 50 50 50 49 48 48 49 50 51 52 52 52 51 49 48 47 47 46 46 47 47 47 47 46 45 46 47 47 48 49 50 51 52
35 35 36 37 39 39 40 41 42 41 39 39 39 40 40 41 42 43 43 44 45 46 47 48 49 49 50 52 53 53 54 55 55 54 53 52 52 52 53 53 53 53 53 53 53 53 53 53 52 52 53 53 52 50 48 49 50 50 51 52 52 53 53
40 42 43 44 45 46 47 48 48 46 44 43 43 43 44 45 47 47 48 48 48 49 50 51 51 52 53 54 54 55 55 56 57 58 58 57 56 55 54 54 54 54 54 54 55 56 56 56 56 57 58 58 56 54 53 53 53 52 52 52 52 52 52
42 42 44 45 46 49 51 53 52 50 49 49 48 49 50 51 52 53 53 53 53 53 53 53 54 54 54 55 55 56 56 56 57 58 58 57 57 56 55 54 54 54 55 55 56 57 58 59 60 60 60 60 59 58 56 55 53 53 53 53 53 52 52
45 46 47 47 47 47 50 52 52 52 52 52 53 54 55 55 56 56 56 55 54 54 54 53 54 54 54 55 55 55 56 56 56 57 57 56 56 55 56 56 56 57 58 59 60 61 62 63 63 62 62 61 60 60 58 56 54 54 55 55 55 55 54
52 53 52 50 48 47 47 48 49 50 51 53 54 55 55 55 55 54 54 53 53 54 54 55 55 56 57 57 57 57 57 58 59 59 59 59 59 59 60 61 62 63 64 64 65 65 65 64 63 63 63 62 62 60 58 56 55 55 55 55 55 55 55

ECMWFFLT1_500_spd_030.txt.gz
Wind_Speed
18 17 17 18 19 18 16 13 12 12 12 13 14 14 13 13 12 12 12 13 13 13 13 12 12 12 12 13 13 13 13 13 13 14 15 15 14 14 14 15 16 17 17 17 17 17 16 16 16 17 18 19 18 17 17 17 19 20 20 19 19 19 18
17 16 16 18 20 19 15 12 12 13 14 15 14 14 12 12 12 11 11 11 12 13 13 12 11 11 11 11 11 11 11 11 12 13 14 13 13 14 15 16 16 17 17 17 17 17 17 17 18 19 20 20 19 18 18 18 19 20 19 19 19 19 19
16 16 15 17 19 19 16 14 14 15 16 15 14 13 12 12 12 11 11 11 11 12 12 12 11 11 10 10 10 10 9 10 11 12 12 12 13 15 15 15 16 16 17 17 17 17 18 18 19 20 21 20 19 19 18 18 19 19 18 18 19 19 19
14 14 15 16 17 18 17 17 16 15 15 15 13 11 11 11 11 11 11 11 11 11 11 12 12 11 10 10 10 10 10 10 11 11 11 11 12 13 14 15 15 16 16 17 17 18 18 19 20 21 21 20 19 18 18 18 19 18 18 18 18 18 19
13 14 15 15 16 16 16 16 15 15 14 13 11 10 10 10 10 11 11 11 11 11 11 11 11 11 11 11 11 11 11 11 12 12 11 11 11 12 14 15 15 15 16 17 17 18 19 19 20 21 21 20 19 18 17 18 18 17 17 18 18 18 19
12 13 14 15 14 15 16 16 15 14 14 13 11 10 10 10 11 11 11 12 11 10 9 10 11 10 10 10 10 11 11 11 11 11 11 11 11 12 13 14 15 15 15 16 17 18 18 19 19 20 19 19 18 18 17 17 17 17 17 18 18 19 20
12 13 14 14 14 15 16 15 14 14 13 12 12 11 11 11 11 12 12 12 12 10 9 9 9 9 9 8 9 9 10 10 10 10 10 10 11 12 12 13 14 15 16 16 16 17 18 19 19 19 18 18 18 17 17 17 18 18 18 18 19 20 20
11 11 10 11 13 14 14 13 13 13 13 12 12 11 11 12 12 13 12 12 13 12 12 11 11 10 10 10 10 10 10 10 10 10 10 10 11 11 12 13 14 15 16 16 16 17 18 19 19 19 18 18 18 18 18 18 19 19 19 20 20 20 21
10 9 8 9 12 13 13 13 12 13 12 11 11 11 11 11 12 13 13 13 13 14 14 14 13 13 13 13 13 13 13 12 12 11 11 11 11 12 12 13 14 15 16 16 17 17 18 19 19 18 18 18 19 19 19 19 20 20 20 21 21 22 22
11 10 10 10 12 14 14 14 13 13 12 11 10 10 10 10 10 10 11 13 13 13 13 14 14 14 15 15 15 14 14 13 13 12 12 12 13 13 13 14 14 15 15 16 17 17 18 19 19 18 18 19 20 20 20 20 21 21 21 22 22 23 23
13 13 13 12 14 15 14 13 13 13 12 10 10 9 9 9 8 7 8 10 12 12 13 13 13 13 14 14 14 14 13 13 13 13 13 13 14 14 15 15 15 15 15 16 17 17 18 19 19 19 19 20 20 21 21 21 21 22 22 22 23 23 24
14 14 14 13 14 14 13 12 12 12 11 10 10 9 8 8 8 8 7 9 11 12 12 12 11 11 11 12 12 12 12 13 13 13 13 14 14 15 15 16 16 16 16 17 18 18 19 19 19 19 20 20 21 21 21 21 21 21 21 21 22 22 23
15 15 14 14 14 14 13 13 12 12 11 12 12 11 10 10 10 10 9 10 11 11 11 11 11 10 10 10 10 10 11 11 12 12 12 13 14 14 15 15 16 16 17 18 19 19 20 20 20 20 20 21 21 21 21 21 21 21 21 20 21 22 23
16 16 16 16 15 15 14 14 14 14 14 15 15 15 14 13 13 13 12 12 12 11 11 11 11 11 10 10 10 11 11 11 11 11 12 12 13 14 14 15 15 16 17 17 18 18 19 20 20 20 21 21 21 21 21 22 22 22 21 21 22 23 24
15 15 17 17 17 17 16 16 16 16 16 17 18 18 17 16 16 15 15 14 13 12 12 12 12 12 12 11 11 11 11 11 11 11 11 12 12 13 13 14 14 15 16 16 17 17 18 19 19 20 20 21 21 21 22 22 23 23 23 23 23 23 23
15 15 16 17 18 18 18 17 17 17 18 19 19 19 18 17 17 16 16 15 14 13 13 13 13 13 12 12 12 12 11 11 11 10 10 10 11 11 12 13 13 14 15 15 16 17 17 18 19 20 20 21 21 21 22 22 22 23 23 23 23 23 23
17 17 16 16 17 19 19 19 18 17 18 19 19 18 17 17 17 17 16 16 15 14 13 13 13 13 13 13 13 12 11 11 10 10 10 10 10 11 12 12 13 13 14 15 16 16 17 17 18 19 19 20 20 20 21 21 21 21 22 22 22 22 22
19 19 18 18 18 19 20 20 18 17 18 18 18 18 17 17 17 17 16 16 15 14 14 14 15 15 15 14 14 13 12 11 11 10 11 11 12 12 13 13 14 14 15 15 15 15 15 16 16 16 17 17 18 19 19 19 20 19 19 19 20 20 21
19 20 20 20 20 20 20 20 19 18 18 18 18 18 18 18 18 18 17 16 15 15 16 16 17 17 16 16 15 14 13 13 12 12 12 12 13 13 13 14 14 15 15 15 15 15 15 15 15 15 15 16 16 17 18 18 18 18 18 18 19 20 21
19 19 20 20 20 20 20 21 21 20 19 18 17 19 20 20 19 19 18 18 17 17 18 18 18 18 17 17 17 16 15 14 13 13 13 13 13 14 14 15 15 16 16 16 16 16 16 16 15 15 15 15 16 16 17 17 17 18 18 19 20 21 22
19 17 17 18 20 20 20 21 22 22 21 20 19 20 21 21 20 20 20 20 20 19 19 19 19 18 18 17 17 16 16 15 14 14 14 14 15 15 16 16 17 17 18 18 17 17 16 16 16 16 16 16 16 17 18 19 20 20 21 21 22 23 23
19 18 18 19 20 21 22 22 23 23 24 23 21 21 21 22 22 22 22 22 22 21 21 20 20 19 18 17 17 17 16 15 15 15 15 16 16 17 18 18 19 18 18 18 17 17 16 16 15 15 15 15 16 16 17 18 19 20 21 22 22 23 23
21 20 20 20 20 21 21 22 23 23 24 25 23 22 22 23 24 24 24 24 23 23 22 22 22 21 20 19 18 18 18 17 17 17 17 18 19 19 20 20 20 20 19 19 19 18 18 17 16 16 15 16 16 16 17 17 17 18 19 20 21 22 23
22 21 20 20 20 19 20 22 23 23 24 25 25 23 23 25 26 26 26 25 24 24 24 23 23 22 21 21 20 20 20 20 20 20 20 21 21 22 22 22 22 22 21 22 22 21 21 20 19 18 18 18 18 19 19 19 19 19 19 20 22 22 23
21 21 20 20 19 19 21 23 24 24 25 25 25 25 25 26 27 27 26 25 25 26 26 25 24 23 22 22 22 22 23 23 24 24 24 24 24 25 25 24 24 24 24 24 25 25 24 23 23 22 22 21 21 21 21 22 22 22 23 23 23 24 24
21 20 21 22 22 22 23 24 26 27 27 27 26 26 26 27 28 28 27 27 27 27 26 25 25 25 25 24 24 25 25 26 26 26 27 27 27 27 27 27 27 26 27 27 28 28 28 27 27 27 27 26 25 24 24 24 25 25 26 25 25 26 27
23 22 22 23 23 23 24 25 27 28 28 28 27 27 27 27 28 28 28 28 27 27 27 27 28 28 28 28 28 28 28 29 29 29 29 30 30 30 30 30 30 30 31 31 31 32 32 32 32 32 33 33 32 30 30 29 29 29 28 28 28 30 31
23 24 24 24 24 24 24 25 26 28 28 28 28 28 29 28 27 27 27 27 28 29 30 31 31 31 31 31 30 31 31 31 31 32 32 32 32 32 32 33 33 33 34 34 35 36 36 37 37 38 38 39 39 39 38 37 37 35 33 32 33 34 35
22 23 24 23 23 24 24 24 26 27 28 28 28 28 28 27 26 27 28 29 31 32 33 34 34 34 34 33 33 33 33 33 33 34 34 35 35 35 36 36 36 36 37 37 38 39 39 40 41 42 42 43 44 44 44 44 44 43 41 39 37 37 38
22 23 23 22 23 25 25 25 26 28 29 30 30 29 29 29 30 31 31 32 34 35 36 36 37 37 37 36 36 35 35 35 36 36 37 38 38 39 40 41 41 41 41 41 42 43 44 44 44 45 46 46 46 46 46 47 48 48 46 44 42 42 42
23 24 24 23 23 24 23 26 29 29 29 31 33 33 34 34 35 35 35 36 37 38 39 39 39 39 40 40 39 39 39 39 39 40 40 41 42 43 44 45 45 46 46 46 47 48 49 49 49 49 49 50 50 50 49 50 50 49 48 47 47 47 46
25 26 26 26 27 26 26 28 30 31 32 34 35 37 37 37 38 38 38 39 40 41 42 42 42 43 43 43 43 43 43 43 43 44 44 45 46 46 47 48 49 50 51 51 52 53 54 54 54 53 54 54 53 52 52 53 54 53 52 52 53 52 51
28 28 28 29 30 30 30 31 31 32 34 34 34 38 39 38 38 39 39 40 42 43 45 46 46 46 46 46 46 46 46 47 48 48 49 49 50 50 50 51 52 54 55 56 57 57 58 59 58 58 57 57 57 55 55 55 55 55 55 56 56 55 54
29 30 31 31 32 32 33 34 34 34 34 32 32 36 39 38 39 40 42 43 44 45 47 48 49 50 50 50 50 50 50 51 52 52 53 53 54 54 54 55 56 57 58 59 60 60 61 61 61 60 60 59 59 58 58 57 57 56 56 57 57 57 58
32 33 34 34 34 35 36 37 38 39 41 41 41 44 45 45 46 48 49 50 50 50 49 49 50 51 52 53 54 55 56 56 56 56 56 57 58 58 58 58 59 59 60 61 61 61 61 61 61 60 59 58 58 57 57 57 57 58 58 58 59 60 61
41 40 40 40 41 41 40 40 42 43 44 46 48 49 50 49 49 50 51 52 52 53 54 54 55 55 56 57 58 59 60 59 59 59 59 59 59 60 60 61 61 61 61 61 61 60 61 61 60 59 58 57 58 58 59 59 60 61 61 62 63 63 63
50 46 44 44 45 46 45 46 47 47 48 49 51 52 52 52 52 52 52 52 52 53 55 58 59 58 58 59 60 61 61 61 61 60 60 59 59 60 60 61 61 62 62 62 62 62 61 61 62 61 61 61 62 63 63 64 64 64 64 64 64 64 63

ECMWFFLT1_500_spd_033.txt.gz
Wind_Speed
14 16 17 19 20 21 21 21 21 20 20 20 19 17 16 16 16 16 16 15 15 15 14 14 14 14 14 13 13 12 11 11 11 12 12 12 12 13 12 12 12 12 13 13 14 15 15 15 15 15 15 16 16 17 17 17 17 17 17 18 18 19 19
14 15 17 19 20 21 21 21 20 19 18 18 17 16 16 16 16 16 16 16 16 16 15 14 14 14 13 13 13 12 11 11 11 12 13 13 13 13 12 11 11 12 12 13 14 15 15 16 16 15 16 16 16 16 17 17 17 17 18 19 19 19 19
13 14 16 18 19 20 20 19 18 16 15 14 14 15 16 16 16 16 16 15 15 15 14 13 13 13 13 12 13 12 11 11 12 12 12 12 12 13 12 11 11 11 12 13 14 15 15 16 16 16 16 16 16 16 16 17 17 17 18 19 19 19 19
13 15 16 17 18 19 19 19 18 16 15 14 15 16 17 17 17 16 15 14 14 14 13 12 12 12 12 12 13 12 12 11 11 11 11 10 11 11 12 11 11 12 12 13 13 14 15 16 16 16 16 15 15 16 16 17 17 18 19 19 19 18 18
14 15 15 16 17 17 18 19 20 19 18 18 17 17 18 17 17 16 15 14 13 13 12 12 11 12 12 12 12 12 12 12 11 10 9 10 10 11 11 11 12 13 13 13 13 14 15 16 16 16 15 15 15 16 17 17 17 18 18 18 18 18 17
14 14 14 15 15 15 17 19 21 21 20 19 17 17 18 17 16 15 14 14 13 12 12 11 11 11 11 12 12 12 12 12 11 10 10 10 11 11 12 12 12 14 14 13 13 14 15 15 15 15 15 15 16 17 17 17 17 17 17 17 17 17 17
13 13 13 13 13 14 17 19 20 20 19 18 17 17 17 17 16 15 14 14 13 12 12 11 11 10 10 11 12 11 11 10 10 10 10 11 11 12 12 13 13 14 14 13 13 14 15 15 15 15 15 16 17 17 17 17 17 16 17 17 17 18 18
13 13 13 12 13 14 16 18 19 18 17 17 17 17 16 16 15 14 13 14 14 13 13 12 11 10 10 10 10 10 9 9 10 10 10 11 11 11 12 12 12 13 13 13 14 15 15 15 15 15 16 17 17 17 17 17 17 17 17 18 18 18 18
13 12 10 10 11 13 16 18 17 15 15 16 16 16 16 15 14 12 12 13 13 14 14 13 12 12 12 11 11 11 10 10 11 11 11 11 11 11 11 11 12 12 13 14 15 15 15 15 15 15 16 17 17 17 17 17 17 17 18 18 18 18 19
12 11 9 7 8 11 14 15 14 13 15 16 16 16 16 15 13 11 11 12 13 13 14 14 14 14 14 14 13 13 13 13 14 14 13 13 13 12 12 12 12 12 12 13 14 14 15 14 14 15 16 16 16 16 17 17 17 18 18 19 19 19 19
12 11 9 9 9 10 12 12 12 13 14 16 16 16 15 13 11 9 9 10 12 12 13 14 15 15 15 15 16 16 16 16 16 16 15 15 15 14 14 14 14 14 14 14 14 14 14 14 14 15 16 16 16 17 17 17 18 18 19 19 20 20 20
13 12 10 11 11 12 12 10 10 12 13 15 15 14 12 11 9 8 7 7 9 10 12 12 13 13 13 14 15 15 16 16 16 16 16 16 16 15 15 15 15 15 15 15 15 15 14 14 14 15 16 17 17 17 18 18 19 19 19 20 20 20 20
14 13 12 12 13 13 12 10 9 10 11 13 13 12 10 10 9 8 6 7 8 9 10 11 11 11 11 12 12 13 13 14 14 14 15 15 15 15 15 15 15 15 15 15 15 15 15 15 15 16 17 17 17 17 18 19 19 19 20 20 20 21 21
16 15 14 15 16 15 14 13 11 10 10 11 12 11 11 11 11 10 9 9 9 10 11 11 11 11 11 10 11 11 11 12 12 13 13 14 14 14 14 14 15 15 15 15 15 15 15 15 15 16 16 16 17 17 17 18 18 19 19 20 20 21 21
16 16 16 17 18 17 16 15 14 12 12 12 12 12 13 14 14 14 14 13 12 12 12 12 11 11 10 10 10 10 11 11 12 13 14 14 13 13 13 13 13 13 13 14 14 14 14 14 15 15 16 16 17 17 17 18 18 18 19 20 20 21 21
17 18 18 18 18 18 17 17 16 15 15 14 13 13 13 14 15 15 16 15 14 14 14 13 12 12 12 11 11 12 12 13 14 15 15 14 14 13 13 12 12 12 12 12 13 13 14 14 15 15 16 16 16 16 17 17 18 19 19 19 20 20 20
18 18 18 17 17 17 18 19 19 18 17 16 15 14 14 13 13 14 14 15 15 15 15 14 13 13 13 12 12 13 14 15 16 16 15 15 14 13 13 13 13 12 12 13 13 14 14 15 15 15 15 15 15 16 16 16 17 18 18 18 18 18 18
17 16 15 16 16 16 17 18 18 18 17 17 16 16 14 12 12 12 13 15 15 15 15 15 14 14 13 13 13 14 15 16 16 16 16 15 14 14 13 13 13 13 13 13 14 14 15 15 15 15 15 15 15 16 16 17 17 17 17 17 17 16 16
16 15 15 15 16 16 16 16 17 17 16 16 16 15 14 13 12 12 13 15 16 16 16 15 15 14 14 14 15 16 16 17 17 17 16 16 15 14 14 14 14 14 14 14 15 15 15 15 16 16 16 17 17 17 17 18 18 18 17 17 17 17 17
18 18 17 17 16 17 18 18 18 17 16 16 15 14 14 14 13 13 14 15 16 16 16 16 16 16 15 15 16 17 18 18 18 18 17 17 16 15 14 14 14 14 15 15 15 16 16 17 18 18 18 18 18 18 19 19 19 18 18 18 18 19 20
22 21 20 18 16 17 19 19 19 17 16 15 14 14 14 14 14 15 15 16 17 18 18 18 18 17 17 17 17 18 18 19 19 19 18 18 17 16 15 15 15 15 16 17 17 18 18 19 19 19 19 19 19 19 19 20 20 19 19 20 20 21 21
23 21 20 20 19 17 17 17 18 17 16 15 15 14 14 14 15 16 17 18 18 19 20 20 20 19 19 18 18 18 19 19 20 20 19 19 18 17 16 16 17 17 18 19 20 20 20 21 21 20 20 19 19 19 20 20 20 20 21 21 21 21 21
23 20 18 18 18 17 17 16 17 17 16 16 16 16 16 16 17 18 19 19 20 20 20 21 20 20 20 19 19 20 20 20 20 20 20 20 19 18 18 18 19 20 21 21 22 22 23 23 22 22 21 20 20 20 20 21 21 21 22 22 21 20 20
23 20 17 17 18 18 18 17 17 17 16 16 17 18 19 19 20 20 21 21 21 21 21 21 21 21 21 21 20 20 21 21 21 21 21 21 21 21 21 21 22 22 23 24 24 24 25 25 25 24 23 23 22 22 22 23 23 23 23 23 22 21 21
16 16 16 17 19 19 19 18 18 17 16 16 17 19 20 21 22 23 24 24 25 24 24 23 23 23 23 22 22 22 23 23 23 23 23 24 24 23 24 24 25 25 26 27 27 28 28 28 28 27 27 26 25 25 25 25 25 26 26 25 25 24 23
13 14 16 17 17 18 18 17 17 16 16 16 17 19 20 22 23 24 25 26 27 27 27 26 25 25 25 25 24 25 25 25 25 26 26 26 26 26 27 27 27 28 28 29 29 30 30 31 31 30 30 29 29 29 29 29 29 29 30 30 29 29 28
16 16 17 17 18 18 17 17 17 18 17 17 18 20 21 23 24 24 25 26 28 29 29 28 27 27 27 27 27 27 27 27 27 28 28 29 29 29 30 30 31 31 31 31 32 32 32 32 33 33 33 33 33 33 33 33 33 33 34 34 35 35 35
19 18 18 19 18 17 17 19 20 19 19 19 20 21 21 22 23 24 24 25 27 29 30 29 29 28 28 28 28 29 29 29 30 31 31 32 32 33 33 34 34 34 34 35 35 35 35 35 35 35 35 36 36 36 37 37 37 38 38 39 39 40 41
19 18 19 20 20 19 20 21 21 20 21 21 22 22 22 22 23 24 25 25 26 28 29 29 29 29 29 29 29 30 31 32 33 34 34 35 35 36 36 37 37 37 37 38 38 39 39 39 39 39 39 39 40 40 41 41 42 43 44 44 45 45 46
18 18 20 20 20 21 21 20 20 21 22 23 23 23 23 23 24 26 27 27 27 28 30 30 30 30 30 30 31 32 34 35 36 37 38 39 39 39 39 39 39 39 40 40 41 41 42 43 43 43 43 44 44 45 45 46 47 48 49 50 50 51 51
19 20 20 20 20 21 20 21 22 23 24 24 23 23 23 24 25 27 29 30 30 30 31 31 32 32 33 34 35 35 36 38 39 40 42 42 43 43 43 42 42 42 42 43 44 44 45 46 47 47 48 48 49 49 49 50 51 52 53 54 54 54 55
20 21 22 23 24 22 22 23 24 25 25 25 23 23 24 26 27 29 31 33 34 35 35 36 36 37 37 38 38 38 39 40 41 42 44 45 46 46 46 46 46 46 46 46 47 47 48 49 50 51 52 52 53 53 53 54 55 56 57 57 58 58 58
25 23 23 23 24 25 26 27 27 27 27 27 26 26 26 28 30 32 34 37 38 38 39 40 40 40 40 41 41 41 41 42 43 44 46 48 49 50 50 50 50 50 50 50 50 51 51 52 54 55 55 56 56 57 57 58 59 60 60 61 62 62 61
31 31 30 26 25 27 29 29 30 30 31 31 30 29 28 28 30 32 35 38 40 39 40 42 43 44 43 43 43 44 44 45 45 47 49 51 52 53 54 55 55 55 55 54 54 54 54 55 57 58 59 59 60 61 62 62 63 63 64 64 65 64 64
33 33 35 34 32 31 32 32 32 33 34 35 35 35 34 33 34 35 37 39 38 37 38 40 42 43 44 45 46 48 49 49 50 51 52 54 55 56 57 58 59 60 60 59 59 58 59 60 61 61 62 64 65 66 66 67 67 67 67 66 66 66 65
34 33 35 37 38 37 37 37 37 37 37 38 38 38 38 38 39 42 44 45 44 42 41 41 42 44 47 49 51 52 52 53 53 53 53 54 56 58 59 60 62 63 63 64 64 63 64 65 66 66 66 66 67 67 68 68 67 67 66 66 66 65 65
37 37 38 39 40 41 41 42 42 41 40 39 39 40 40 42 44 46 49 51 52 52 51 51 51 53 54 55 56 57 58 58 58 57 57 57 58 59 61 63 64 64 65 65 66 67 68 68 68 67 67 67 67 67 67 67 67 66 66 66 67 66 66

ECMWFFLT1_500_spd_036.txt.gz
Wind_Speed
13 13 13 12 12 13 14 15 15 16 17 18 18 18 18 17 17 16 16 15 15 15 15 15 15 15 15 16 16 16 16 14 13 13 13 13 12 12 14 14 13 13 13 11 11 12 12 11 10 10 11 11 12 12 12 12 13 13 13 14 14 14 14
12 12 11 11 11 12 13 15 16 17 18 18 18 18 19 19 18 18 17 17 17 16 16 16 16 16 16 16 16 16 16 16 16 15 14 13 13 13 14 14 13 12 13 13 12 13 12 11 10 10 11 11 12 12 12 12 12 13 14 14 15 15 15
10 9 9 9 10 12 13 15 16 17 18 18 18 19 19 19 19 18 18 18 17 17 16 16 16 15 15 16 16 16 16 16 16 16 15 14 14 14 13 13 13 13 13 12 12 12 12 12 11 11 11 12 12 12 12 12 13 13 14 15 15 15 15
9 8 9 10 11 12 13 14 15 16 17 17 17 18 18 17 17 17 17 17 17 17 17 16 16 16 15 15 16 15 15 15 15 15 14 14 13 13 13 14 14 14 13 13 12 12 12 12 12 12 12 12 12 13 13 13 14 14 14 15 15 15 15
9 9 10 11 12 13 13 14 15 16 17 16 16 16 16 16 16 17 17 17 17 17 16 16 16 15 15 15 15 14 14 14 14 14 14 14 13 13 13 14 14 14 14 13 12 12 13 12 12 13 12 13 13 13 14 14 14 15 15 15 15 15 15
10 11 11 12 12 13 14 15 17 18 18 18 18 18 17 17 17 17 17 17 17 16 15 15 15 15 15 15 14 13 13 13 14 14 14 14 14 15 15 14 14 15 14 13 13 13 13 12 13 14 13 14 14 14 14 14 14 15 15 15 15 15 14
12 12 11 12 12 13 15 17 19 20 20 21 20 20 19 18 17 17 17 17 16 15 15 15 14 14 14 14 14 13 12 13 14 14 15 15 15 15 15 14 13 14 14 13 14 14 14 14 14 15 14 15 15 14 14 14 14 14 14 15 14 14 14
13 12 11 12 12 14 16 18 20 21 21 21 20 20 19 18 17 17 17 17 16 15 15 14 13 13 13 13 13 13 12 13 14 14 15 15 14 14 14 13 12 12 13 13 13 14 15 15 14 15 15 15 15 14 14 14 14 14 14 14 14 14 14
14 13 12 12 13 14 16 18 19 20 19 18 17 17 17 17 16 16 16 16 15 15 15 14 13 12 12 12 12 11 11 12 13 14 14 14 14 13 12 12 12 11 11 12 12 14 15 14 14 15 15 15 14 14 14 14 14 14 14 14 14 15 15
14 13 13 13 13 14 15 16 16 16 16 15 15 16 16 16 16 15 15 15 15 15 15 15 14 13 12 12 12 12 11 11 12 13 14 14 13 12 11 12 12 12 12 13 13 14 15 15 15 15 15 14 14 14 14 14 14 14 15 15 15 15 16
15 14 14 14 13 12 12 12 12 12 12 12 13 14 15 15 15 14 14 14 14 15 15 15 15 15 14 13 13 13 12 12 12 13 14 14 14 13 14 15 15 16 16 16 16 15 16 16 17 16 15 14 14 14 14 14 14 15 15 15 16 16 16
15 15 15 15 13 12 11 11 10 10 11 11 12 13 14 14 14 14 14 13 13 14 14 15 15 15 15 15 15 15 15 14 14 15 15 15 16 16 16 17 17 18 18 18 18 17 16 17 18 17 16 16 15 15 15 15 15 15 16 16 16 16 17
15 16 15 14 14 13 13 12 11 11 12 12 13 13 13 13 14 13 12 11 10 10 11 12 14 15 15 16 16 15 15 14 14 14 14 14 14 14 15 15 16 16 17 17 17 17 17 18 18 17 17 17 16 16 16 16 16 16 16 16 17 17 17
16 17 16 15 15 16 15 14 13 12 12 12 12 11 12 13 14 13 12 10 9 8 8 10 12 13 14 15 14 14 13 12 11 11 11 11 11 11 12 13 14 14 15 15 15 15 16 17 17 16 16 16 16 16 16 16 16 16 16 16 17 17 18
19 19 19 18 18 18 17 16 14 13 12 12 11 11 12 13 14 14 13 12 11 10 10 11 12 13 13 14 13 13 12 11 10 10 10 10 10 11 12 13 13 13 13 13 14 14 14 14 14 14 14 14 15 15 15 15 16 16 16 16 17 18 18
22 22 21 20 20 19 18 16 15 14 13 13 12 12 12 13 14 14 14 15 15 14 14 14 14 14 14 14 14 14 13 12 11 11 11 11 11 12 13 13 13 13 13 12 13 13 13 13 13 13 13 14 14 15 15 16 16 16 16 17 17 18 18
22 22 23 22 21 19 18 17 17 17 16 15 14 13 14 14 14 14 15 15 15 15 15 16 16 16 16 16 16 15 15 14 13 12 12 12 13 14 14 14 14 14 13 13 13 14 14 14 14 14 14 14 15 15 15 16 16 17 17 18 18 19 19
20 20 22 23 21 19 18 18 18 18 18 17 17 16 16 16 16 15 15 14 15 15 16 17 18 18 18 18 18 17 17 16 14 13 14 14 15 15 15 15 15 15 15 14 15 15 15 14 14 15 15 16 16 16 16 17 18 18 19 20 20 20 20
19 19 20 21 20 20 19 19 19 19 18 18 18 18 17 17 17 16 15 15 15 15 16 17 18 19 19 19 19 18 18 17 15 15 15 16 16 16 17 17 17 17 16 16 16 15 15 15 15 16 17 17 17 17 18 19 20 20 21 21 22 22 21
21 19 19 19 20 20 20 20 20 19 19 18 18 18 17 17 17 17 16 16 15 16 17 17 18 18 19 19 19 19 18 17 16 16 16 17 17 18 18 19 19 19 18 17 17 16 16 16 17 17 18 18 18 19 20 20 21 22 22 23 23 22 22
23 21 20 19 19 20 20 20 21 21 20 19 19 19 18 18 18 17 16 16 16 16 17 18 18 19 19 19 19 19 18 17 17 17 18 18 19 19 20 20 20 20 19 19 18 18 18 19 19 19 20 20 21 21 21 22 23 23 23 23 23 23 23
22 22 22 21 20 20 20 19 20 21 22 21 20 20 19 19 18 17 17 16 16 17 18 18 19 19 20 20 20 20 19 19 19 19 19 19 20 20 21 21 21 21 21 21 20 20 21 21 21 21 22 22 23 23 23 24 24 24 24 24 24 24 24
21 22 23 23 23 23 22 22 22 22 23 24 22 21 20 19 19 18 17 17 17 18 18 19 20 20 20 20 20 20 20 20 20 20 20 20 21 21 22 22 23 23 23 23 23 23 23 23 23 24 24 24 25 25 25 26 26 26 26 26 26 26 26
24 23 22 23 24 24 23 25 27 25 22 23 23 22 21 20 19 18 17 17 17 18 19 20 21 21 21 21 21 21 21 21 21 21 22 22 22 23 24 24 25 25 25 25 25 25 25 26 26 26 26 26 27 27 28 28 28 28 28 28 28 28 28
23 23 24 25 26 24 20 20 24 24 21 21 23 22 21 19 18 17 17 17 17 18 19 21 22 23 23 23 23 23 23 23 23 24 24 24 25 25 26 27 27 27 27 27 27 27 28 28 28 28 29 29 29 29 30 30 30 30 30 30 31 30 30
23 23 23 24 24 23 20 18 20 22 21 22 23 22 20 18 17 16 16 17 17 17 18 20 22 24 25 25 26 26 26 26 26 26 26 26 27 27 27 28 28 28 28 29 29 30 30 31 31 31 31 31 32 32 33 33 33 34 34 34 34 34 34
26 24 21 19 19 19 19 18 19 20 20 22 23 22 19 17 17 16 16 17 17 18 19 20 22 24 25 27 28 28 28 28 28 28 28 27 28 28 28 29 29 30 30 31 31 32 33 33 34 34 34 34 35 35 36 36 36 37 37 38 38 38 38
25 24 21 19 18 18 18 19 19 20 20 21 23 22 19 18 18 18 18 18 18 19 19 20 22 24 26 27 29 29 29 29 29 29 29 29 29 29 30 31 31 32 32 33 34 35 36 36 37 37 37 37 38 38 39 39 39 39 40 40 41 41 41
24 24 21 19 19 19 19 19 20 20 20 22 24 23 22 21 20 20 20 20 21 21 21 21 22 24 25 27 29 30 31 31 31 31 30 30 30 31 32 32 33 34 35 36 36 37 38 39 40 40 40 40 41 41 42 42 42 43 43 43 44 44 45
26 24 21 20 20 20 20 20 21 21 22 23 24 23 24 23 22 22 22 22 23 23 23 23 24 25 26 28 29 31 32 32 33 32 32 32 32 33 33 34 35 36 37 38 38 40 41 42 43 43 43 44 44 44 45 45 45 46 47 47 48 48 49
27 24 23 22 22 22 22 22 22 23 24 24 24 24 24 24 23 24 24 24 25 26 26 26 26 27 28 29 30 32 34 34 34 34 34 34 35 35 36 37 38 38 39 40 40 42 43 44 45 46 47 47 48 47 47 48 48 48 49 50 51 51 51
27 25 25 23 22 22 21 21 23 24 25 24 24 25 26 26 26 26 25 26 27 28 28 28 28 30 30 31 32 34 35 36 36 36 36 37 37 38 38 39 40 41 42 42 43 43 45 46 48 49 50 51 51 51 51 52 53 52 52 53 53 54 54
26 25 24 23 22 23 22 23 24 25 25 25 26 27 27 28 28 26 25 27 29 30 31 31 31 31 32 33 34 35 36 38 38 39 39 40 41 42 42 43 43 43 44 44 44 45 47 49 50 52 53 54 55 56 56 57 58 58 57 57 57 58 58
23 23 23 22 23 26 27 28 29 29 28 29 29 29 28 29 30 29 29 31 32 32 32 32 32 33 35 36 37 39 40 40 41 43 44 45 45 46 46 46 46 45 46 46 47 49 51 53 54 55 57 58 59 60 61 61 62 63 62 62 62 62 62
28 28 27 27 27 28 28 28 29 30 31 32 34 34 33 33 33 33 33 34 35 35 35 34 33 34 36 38 40 42 43 43 45 46 48 49 50 50 50 50 48 48 49 51 53 54 55 56 57 58 59 60 61 63 64 64 65 66 66 67 67 67 67
33 33 32 31 31 32 32 31 30 31 32 33 35 37 38 39 38 38 37 37 38 38 38 38 37 37 37 37 39 41 42 44 46 47 49 50 50 51 51 51 51 52 54 56 57 57 58 59 60 61 62 63 64 66 67 68 69 69 69 70 70 70 69
35 35 35 34 33 35 36 37 37 37 36 36 37 38 39 40 41 42 43 43 43 43 43 44 44 43 43 42 41 42 44 47 49 50 51 52 53 53 54 55 56 57 59 60 61 62 62 63 63 64 65 66 67 68 69 70 70 71 70 70 70 70 70

ECMWFFLT1_500_spd_042.txt.gz
Wind_Speed
17 17 16 16 16 17 16 15 15 15 12 10 10 10 11 11 10 10 10 9 9 10 10 11 12 13 14 14 14 13 12 13 12 10 11 12 12 11 10 10 10 10 10 10 9 8 8 7 6 7 8 7 7 7 8 8 9 9 9 9 9 9 9
17 17 16 16 16 16 15 15 14 13 12 11 12 12 11 11 11 10 10 9 10 11 12 12 13 14 15 14 14 14 14 15 13 12 12 13 13 11 11 12 11 10 10 10 9 9 9 8 7 8 8 7 7 8 8 8 9 10 10 10 10 10 10
17 17 17 16 15 14 14 13 12 12 12 12 12 12 10 10 10 10 10 10 11 11 12 13 14 15 15 15 16 16 15 16 15 14 14 14 14 13 12 12 10 10 10 9 9 10 10 8 7 7 8 8 7 7 8 9 9 10 10 11 11 11 11
17 18 17 16 15 14 13 12 12 12 11 12 11 9 9 9 10 10 11 11 12 12 12 13 15 16 16 16 17 16 15 16 15 14 15 15 14 13 13 12 11 11 11 11 10 9 8 7 6 6 7 8 8 8 8 8 9 10 10 11 11 11 10
18 18 17 15 14 13 13 13 13 12 11 10 9 9 9 9 10 10 11 11 12 12 12 13 15 16 15 15 17 16 16 16 15 15 16 15 14 14 14 13 12 11 11 12 11 10 8 8 7 5 5 7 8 8 8 8 9 9 9 10 10 9 9
18 18 16 14 13 14 14 14 14 12 11 10 10 10 11 11 11 11 11 11 11 11 12 13 14 15 15 15 16 17 16 15 14 14 14 14 14 14 13 12 11 11 11 11 11 10 10 9 7 5 5 6 7 7 7 8 8 8 8 8 8 8 7
18 17 16 15 14 14 15 15 14 13 12 11 12 13 13 13 12 12 12 12 12 12 12 13 14 16 17 17 17 17 16 14 13 12 12 13 13 12 10 10 11 12 12 11 10 11 11 10 8 7 7 7 7 7 7 7 7 7 7 7 7 7 7
17 17 16 15 15 16 17 17 15 14 13 14 15 14 14 14 14 13 13 13 13 14 14 15 16 16 16 16 16 15 14 13 12 12 12 13 12 11 11 10 11 11 11 10 9 10 9 8 7 7 6 6 7 7 7 7 7 7 7 7 7 7 7
17 17 16 16 16 18 19 18 16 15 15 15 15 15 14 14 14 14 14 14 15 15 15 15 16 16 14 14 15 13 13 13 12 11 12 12 12 11 10 9 8 9 8 8 8 8 8 6 6 5 5 6 7 7 7 7 8 8 8 8 7 7 8
17 17 16 16 18 19 18 17 16 16 16 15 15 14 14 14 14 13 13 14 14 15 14 13 14 14 13 13 13 13 13 12 11 11 11 11 11 9 8 7 6 7 7 6 7 8 8 6 6 6 6 7 7 7 8 8 8 8 8 8 8 8 9
16 16 16 17 18 18 17 17 17 16 16 15 15 14 14 14 14 13 13 14 14 15 14 13 13 13 12 13 12 13 14 12 10 9 9 10 9 8 7 7 6 6 6 7 8 9 9 8 7 7 7 7 6 7 7 7 7 7 7 8 9 9 10
17 16 17 17 17 17 17 17 17 16 15 15 15 15 16 15 15 15 14 14 15 15 14 13 12 12 11 12 12 13 14 13 11 10 10 9 8 8 8 8 7 7 8 8 9 10 10 9 8 7 7 7 7 7 7 7 8 7 8 9 9 10 11
18 17 17 17 17 17 18 17 16 15 14 14 14 15 16 16 16 16 15 15 15 14 13 13 12 12 12 12 13 14 14 14 13 12 12 12 10 9 9 10 9 9 11 11 10 9 9 8 7 6 6 7 7 7 7 8 8 8 8 9 10 10 11
20 18 17 16 16 17 17 17 16 15 14 14 13 14 15 16 16 16 16 15 15 14 14 13 13 13 13 14 14 14 15 15 14 14 14 14 13 12 11 12 11 11 11 11 10 9 9 8 7 6 6 7 7 7 7 8 9 8 8 9 10 11 12
22 20 17 16 16 16 16 16 16 16 15 15 15 15 15 16 16 16 16 15 15 15 14 14 13 13 13 14 14 14 15 15 15 14 14 14 14 13 12 12 11 10 10 10 10 9 9 9 7 7 7 8 8 8 7 8 9 9 10 11 12 13 14
24 22 18 16 16 16 16 17 17 17 17 17 17 17 16 16 16 17 16 16 16 15 15 14 13 12 12 12 12 13 14 15 15 14 14 14 14 13 13 12 11 10 10 10 9 10 10 10 8 7 7 8 9 8 8 9 10 11 12 13 13 14 15
26 25 20 18 17 18 18 18 19 18 18 19 19 19 18 16 16 16 17 17 16 16 16 15 15 14 13 13 12 13 14 15 15 14 14 14 14 14 13 12 11 10 10 10 9 10 10 9 7 7 8 9 9 10 9 10 11 13 14 13 14 14 16
27 26 23 20 19 20 20 20 20 20 20 21 21 21 19 17 16 16 16 17 17 17 17 17 16 16 15 15 15 15 15 16 15 15 15 15 15 15 14 12 11 11 12 11 10 12 11 9 8 8 9 10 11 11 11 12 13 14 14 14 14 15 16
29 28 26 23 22 21 21 21 21 21 21 22 23 23 21 19 18 17 17 17 17 17 17 18 18 18 18 18 17 17 17 17 17 17 17 17 17 16 15 14 13 13 13 12 12 14 14 11 10 10 11 12 13 13 14 14 15 15 15 16 16 16 17
31 29 28 25 24 23 23 22 22 22 22 23 24 25 24 22 21 20 20 19 18 18 19 20 20 20 19 19 19 19 19 19 19 19 19 18 18 18 17 17 16 16 15 14 14 16 15 14 13 13 14 15 15 16 17 17 17 17 17 17 18 19 19
32 30 29 28 26 24 23 22 22 22 22 23 24 26 26 25 23 23 22 20 20 21 21 21 21 20 19 19 20 20 20 20 21 22 21 20 20 19 19 18 18 18 18 17 17 17 17 16 16 17 18 18 18 18 19 20 20 20 20 20 20 21 22
34 32 30 29 27 26 25 23 22 22 24 25 25 26 26 26 25 24 23 23 24 24 23 22 22 21 20 20 21 21 21 22 23 23 22 22 22 21 21 20 20 20 21 20 19 19 19 19 19 20 21 22 21 21 22 22 22 22 22 23 23 23 24
36 34 31 30 29 27 27 25 23 24 25 26 26 26 26 26 25 24 25 27 27 27 26 25 24 23 22 22 22 22 23 23 24 24 23 23 23 23 23 22 23 23 23 22 21 21 22 22 22 23 24 24 25 24 24 25 25 25 25 25 26 26 26
36 36 32 31 30 29 28 27 26 27 27 26 26 27 26 26 26 25 26 28 28 28 28 27 26 25 25 24 23 23 23 24 24 24 24 24 25 25 25 24 25 25 24 24 24 24 24 24 25 25 25 26 27 27 27 27 27 27 28 28 28 29 29
35 37 33 30 30 31 30 30 30 29 29 28 27 27 27 27 26 26 26 27 27 27 28 28 27 27 26 25 24 24 23 23 24 24 25 26 26 26 26 25 26 27 26 26 26 26 26 26 26 26 27 28 28 29 29 29 30 30 30 31 31 31 31
35 37 37 34 32 32 32 32 32 31 30 29 28 27 28 27 26 25 26 27 27 28 28 28 28 28 27 26 25 24 23 23 24 25 25 26 26 26 27 27 28 28 27 27 28 28 27 27 28 28 29 29 30 31 31 32 33 33 33 33 34 34 34
35 38 41 38 33 32 33 34 33 32 31 30 30 29 29 28 27 27 27 28 29 30 30 30 29 28 28 27 25 24 23 24 25 25 26 27 27 27 28 28 29 29 29 29 29 29 29 30 30 31 32 32 32 33 34 34 35 36 36 36 36 36 36
35 37 40 38 33 31 33 34 33 32 31 31 31 32 32 31 30 30 31 31 32 33 32 31 29 28 27 27 26 26 25 26 26 26 27 28 28 29 29 29 30 31 30 30 31 32 32 33 33 34 34 35 35 36 36 37 38 38 38 38 38 38 38
35 35 37 39 35 33 33 33 33 32 32 32 33 32 33 33 33 33 33 34 35 35 34 32 30 29 28 28 28 28 28 28 27 27 28 29 29 30 30 31 31 32 32 32 33 34 35 35 35 36 36 37 38 38 39 39 40 40 39 39 40 40 40
35 34 36 37 35 33 32 32 32 32 33 33 33 32 32 33 33 33 32 32 32 33 32 32 31 30 29 29 29 30 30 29 28 29 30 30 30 31 32 32 33 34 34 34 34 35 36 36 37 37 38 39 40 40 41 42 42 41 40 41 41 42 43
37 37 38 37 36 35 33 31 31 31 31 31 30 29 31 31 31 31 29 28 29 30 31 32 32 31 30 29 30 31 30 29 29 30 31 31 31 32 32 32 33 34 35 35 35 36 37 38 38 39 40 41 41 42 43 43 43 43 43 43 44 45 46
40 41 41 40 39 38 36 34 33 31 31 31 29 30 32 31 30 30 29 28 29 30 31 32 33 32 31 30 30 31 30 30 30 31 32 32 32 32 33 33 33 34 34 35 36 37 38 39 39 40 41 42 43 44 45 45 45 46 46 46 47 48 49
40 40 41 40 40 39 39 38 37 34 33 33 34 35 35 32 30 30 30 30 30 31 31 33 33 33 33 31 31 31 31 31 32 33 33 34 33 33 33 32 33 34 34 36 37 38 39 39 40 41 42 43 44 45 46 46 47 47 47 48 50 51 52
39 40 40 40 40 42 42 42 41 38 37 37 36 37 36 33 31 31 31 31 32 31 32 33 34 34 34 33 33 33 33 33 34 34 34 35 35 35 34 32 31 32 35 37 39 40 41 41 41 41 43 44 45 46 47 48 48 49 50 51 52 54 55
39 40 40 41 41 41 42 43 42 40 38 37 37 37 35 32 31 32 32 33 32 32 32 33 33 34 34 34 35 35 35 35 35 34 34 35 36 37 37 34 33 33 36 38 41 42 43 44 44 44 45 46 47 48 48 48 49 51 53 55 56 57 58
35 34 34 36 38 39 40 41 40 38 37 38 37 34 32 31 32 32 33 33 33 33 33 33 34 34 34 35 35 35 36 36 36 35 35 35 36 38 39 39 39 39 40 41 42 43 44 45 46 47 49 49 50 50 50 52 54 56 58 59 61 61 62
27 27 27 27 29 32 35 38 37 36 36 36 35 32 31 31 31 31 32 32 33 34 34 35 35 35 35 34 34 35 35 36 36 36 36 37 38 39 41 42 43 43 44 45 47 48 48 49 49 50 51 52 53 55 56 57 59 60 60 62 63 64 65

ECMWFFLT1_500_spd_045.txt.gz
Wind_Speed
12 11 11 10 8 8 8 9 10 10 10 11 11 10 10 11 12 12 13 13 13 13 12 11 12 12 12 10 10 11 10 9 9 9 10 10 10 10 10 9 9 10 10 10 10 10 10 9 8 8 8 9 8 6 5 5 4 4 5 5 5 5 5
11 11 10 10 9 9 9 10 10 11 11 11 11 11 11 11 12 12 12 13 14 13 11 11 13 13 12 10 11 11 9 9 10 9 9 10 10 10 10 9 10 11 11 11 11 11 11 10 9 8 9 9 8 7 6 5 4 4 4 4 6 5 5
11 10 10 10 9 9 9 9 9 10 10 11 12 12 11 11 11 12 13 14 15 13 12 13 15 14 12 10 11 11 9 10 10 10 10 11 11 11 11 10 11 13 13 12 11 11 11 10 9 9 9 10 9 8 7 5 4 3 4 4 5 5 4
10 9 9 10 10 10 9 9 9 10 10 12 13 12 12 11 12 13 14 15 16 15 15 15 15 14 12 11 12 12 11 11 11 11 11 11 12 12 11 11 13 14 14 12 11 11 10 9 9 9 9 9 9 8 7 5 3 2 3 4 4 4 3
9 9 8 9 10 10 10 9 9 10 11 12 13 12 11 12 13 14 15 16 17 16 16 16 15 14 14 13 13 14 13 11 11 12 12 12 12 12 12 12 14 15 13 12 12 11 10 9 8 9 9 8 8 8 6 4 3 2 3 4 3 3 3
8 7 8 9 10 10 10 10 11 12 12 12 12 11 11 13 15 15 16 16 16 15 16 16 16 14 13 13 13 13 12 11 12 12 12 12 11 11 12 13 14 14 13 12 12 11 10 9 9 9 8 7 6 6 5 4 3 3 4 4 2 3 2
7 6 8 10 10 10 10 10 11 12 12 12 11 11 12 13 15 16 16 16 17 17 16 16 15 14 13 13 13 12 12 12 12 12 12 12 10 10 11 13 14 14 13 13 11 10 10 10 10 10 9 7 6 5 5 4 3 3 4 3 2 2 2
7 6 8 10 11 11 11 11 11 12 12 12 12 13 14 15 16 16 16 17 18 18 18 16 15 14 14 13 12 12 12 12 12 12 12 11 9 9 11 12 13 13 13 13 12 11 10 10 10 11 10 8 7 5 4 4 4 4 4 3 2 2 2
7 6 8 10 11 11 11 12 12 12 12 13 14 15 15 16 16 17 17 18 18 18 18 17 16 15 15 13 12 12 11 10 10 10 10 10 9 9 10 11 12 12 12 12 11 11 10 9 9 10 9 8 7 5 5 5 4 4 5 3 2 3 3
9 7 8 10 11 11 12 13 13 12 13 15 16 16 16 16 16 17 17 17 16 17 17 17 17 16 14 12 12 11 10 9 9 9 9 9 8 8 9 10 10 10 10 11 11 10 9 8 8 9 8 7 7 6 6 6 5 5 6 4 4 4 5
10 8 8 9 11 12 14 15 14 13 14 16 16 16 16 16 15 16 15 14 14 15 16 16 16 15 13 12 11 10 9 8 8 8 7 7 7 8 9 9 9 9 9 10 10 9 9 9 8 9 9 9 8 8 8 7 6 6 7 6 5 6 6
10 9 9 9 11 14 16 16 15 14 14 15 16 16 15 15 14 14 13 13 13 14 14 14 14 14 13 12 10 9 8 8 8 8 7 7 7 8 8 9 9 9 9 10 10 9 9 9 9 9 10 11 10 9 9 9 7 8 8 7 7 6 5
10 10 9 10 11 14 16 16 15 14 14 15 15 15 14 14 13 14 13 13 13 14 15 14 14 14 13 11 10 9 9 9 9 8 8 7 8 8 8 9 10 9 10 10 10 10 10 10 10 10 12 12 11 10 10 9 8 9 8 7 6 5 5
11 11 11 10 11 13 15 16 16 15 15 15 15 14 14 13 13 13 13 14 14 15 15 15 14 14 13 11 11 11 10 10 10 10 9 9 9 9 10 11 11 11 11 11 11 11 10 11 11 12 13 13 11 11 11 9 8 8 7 6 6 5 5
11 11 12 11 11 13 15 16 17 17 16 15 15 14 14 13 13 13 13 14 14 15 16 16 16 15 14 13 12 12 12 11 10 10 11 11 11 11 11 12 13 13 12 12 12 12 10 11 12 12 13 12 10 10 10 9 8 8 8 8 7 6 6
12 11 12 12 12 14 15 17 19 18 17 16 15 14 14 14 13 13 13 14 14 15 15 16 16 16 15 14 13 13 12 12 11 11 12 12 12 11 12 12 13 13 13 13 13 12 11 12 13 13 13 12 10 9 10 9 9 9 9 9 8 7 7
15 13 13 13 13 15 16 18 20 20 19 17 15 14 15 14 14 14 14 13 14 15 15 15 16 15 15 14 13 12 11 11 11 11 11 11 11 12 12 12 12 12 13 14 14 12 12 12 13 14 14 12 11 11 11 12 11 11 10 9 9 9 9
18 16 16 17 18 17 17 18 20 21 21 19 17 16 15 15 16 15 14 13 13 14 15 16 16 15 14 14 13 12 12 11 11 11 11 11 12 13 13 13 13 12 13 14 14 12 11 11 13 15 14 12 11 11 12 13 13 12 10 10 11 12 12
19 19 19 20 21 20 18 18 20 22 24 22 19 17 17 17 16 15 14 14 14 15 16 17 17 16 16 15 15 14 13 12 12 12 12 13 13 13 13 14 14 14 15 16 14 12 12 12 13 14 14 11 11 11 12 13 14 14 12 12 13 14 15
19 19 18 20 22 23 21 20 21 23 25 25 22 20 19 17 16 16 16 17 17 16 16 17 18 18 17 17 17 17 15 15 15 14 14 15 15 14 14 15 16 16 17 18 16 13 13 13 13 14 14 13 13 13 14 15 16 16 15 15 16 17 18
23 22 19 20 24 26 26 24 22 24 26 26 23 22 21 18 17 18 19 20 19 17 17 18 18 18 19 19 19 19 18 18 17 15 16 17 16 15 16 16 17 17 18 18 17 15 14 13 13 14 15 16 16 16 16 17 18 18 19 19 20 20 21
26 25 23 22 23 25 27 25 24 25 27 26 25 24 21 19 20 20 21 22 21 19 19 20 20 20 20 21 21 21 20 19 18 17 18 19 18 18 18 18 18 18 18 19 18 17 15 14 14 16 17 18 18 19 19 19 20 21 21 22 23 23 24
24 25 25 25 24 24 27 26 25 27 28 28 27 25 21 21 22 22 22 23 22 21 22 23 23 22 23 23 22 22 21 21 20 19 19 20 19 19 19 20 20 20 20 20 20 19 18 16 17 18 19 19 20 21 21 22 22 23 24 24 25 26 26
23 24 26 26 24 24 27 27 26 28 29 30 29 25 23 24 24 22 22 23 23 23 24 25 25 25 25 24 23 23 23 23 23 22 21 20 20 20 21 21 22 22 21 20 21 21 20 19 19 20 21 22 22 22 23 24 25 25 26 27 27 28 29
25 24 25 27 26 26 28 29 29 29 31 32 29 26 26 27 26 23 22 23 24 24 24 25 26 27 27 26 25 25 25 25 25 23 22 21 21 22 22 21 22 22 21 21 21 22 22 22 22 23 23 24 24 24 25 26 27 28 29 29 29 30 31
26 26 26 27 28 29 30 31 31 32 33 32 29 28 29 29 27 24 23 24 25 25 25 25 26 27 28 27 26 26 26 26 25 24 23 23 23 23 22 22 23 24 23 23 23 23 24 24 24 24 25 25 26 26 27 28 29 30 30 31 31 32 33
27 28 27 27 28 31 33 34 35 35 33 31 29 30 31 31 29 26 24 25 26 26 26 27 27 28 28 28 27 27 27 27 26 25 25 26 25 24 23 23 25 25 23 23 24 24 25 25 25 26 26 27 28 29 30 31 31 31 31 32 33 34 35
26 27 28 27 27 30 32 34 37 35 31 29 29 30 32 32 31 29 27 26 27 27 27 28 28 29 29 29 29 28 28 28 27 27 27 28 26 25 24 24 25 25 24 24 25 25 26 26 27 27 28 29 30 31 32 33 33 34 34 35 35 36 37
26 28 29 28 28 29 31 35 36 34 32 30 30 31 33 34 34 31 30 29 28 28 29 29 29 30 30 31 31 31 29 29 28 28 29 29 27 26 25 25 26 26 26 27 27 28 28 29 29 30 31 32 33 33 33 34 35 36 36 37 37 38 38
28 29 29 30 31 31 32 35 36 35 35 34 32 32 34 36 35 34 33 32 31 30 31 31 32 32 32 33 34 34 32 30 30 31 31 30 29 28 27 27 27 28 29 30 31 31 31 32 32 33 34 35 35 36 36 36 37 37 38 39 39 40 40
30 32 31 30 32 33 34 37 37 34 35 35 33 33 34 36 36 35 35 34 32 32 33 34 34 35 36 36 36 37 35 33 33 33 33 32 32 31 30 29 29 30 31 32 32 33 34 35 35 36 36 37 37 37 38 38 39 39 40 41 41 42 42
33 36 35 33 35 36 36 38 39 36 35 37 35 33 34 36 36 36 36 35 33 33 34 35 35 35 35 35 36 37 36 35 35 35 33 33 32 32 31 31 31 32 33 34 35 35 36 36 37 37 37 37 37 37 38 38 39 39 40 41 42 43 43
30 33 35 35 37 39 39 40 41 39 37 38 35 32 32 34 33 34 36 36 34 32 32 34 34 33 32 33 34 36 36 35 35 35 34 33 33 33 33 33 34 35 35 36 36 36 36 36 37 37 37 37 37 37 37 38 39 39 40 41 43 44 45
28 30 32 35 38 42 44 44 43 40 38 38 35 31 30 30 31 33 34 34 33 32 32 32 32 32 32 33 34 34 34 35 36 35 35 34 34 34 34 35 36 36 36 36 36 36 36 37 37 37 38 38 38 38 39 39 40 41 42 43 44 46 47
30 32 32 36 39 42 44 43 41 39 39 38 35 33 32 31 32 33 33 34 35 35 34 34 33 33 34 34 34 34 34 35 36 36 36 35 35 35 36 36 37 37 36 37 37 37 37 38 38 39 39 39 40 40 41 42 43 44 46 47 48 50 51
28 32 30 32 37 40 41 39 38 39 40 40 38 36 34 33 34 33 33 36 38 38 38 37 36 35 35 34 34 35 35 36 37 37 38 37 37 37 37 37 37 37 37 38 38 38 39 40 41 41 41 42 43 44 44 46 47 48 49 50 52 53 53
22 28 30 29 31 34 36 36 36 37 39 39 37 35 34 35 35 35 35 38 40 40 40 39 36 35 35 35 35 35 35 36 36 37 38 39 39 39 39 39 39 40 40 40 40 40 41 41 42 43 44 45 46 47 48 50 51 51 52 53 54 55 55